User: anonymous   Login
Location: Baix
(44.7118°N, 4.7648°E)
Time: 15:49:51
(UTC+00:00)
Language:

Cosmos 2344 - Orbit

View from above orbital plane
View from above orbital plane
View from above satellite
View from above satellite

Ground track
Ground track

The orbit data is extracted from the following two-line orbital elements,

1 24827U 97028A   20292.93108306 -.00000188 +00000-0 -17407-2 0  9994
2 24827 063.3142 069.5749 1028834 043.5158 121.8628 11.07910358945502
Epoch (UTC): 18 October 2020 22:20:45
Eccentricity: 0.1028834
inclination: 63.3142°
perigee height: 1247 km
apogee height: 2996 km
right ascension of ascending node: 69.5749°
argument of perigee: 43.5158°
revolutions per day: 11.07910358
mean anomaly at epoch: 121.8628°
orbit number at epoch: 94550

The dashed part of the orbit path shows where the satellite is in the earth's shadow,  

DLR